GW2644 Weather Reports


Display with metric or nautical units.
time (UTC)temp
F
wind
direction
speed
MPH
gust
MPH
rain 1hr
in
rain 24hr
in
rain mn
in
humidity
%
barometer
mb
20260506135251 55 131 0.0 0.0 0.00 0.00 0.00 96 1022.2
20260506134748 54 99 0.0 0.0 0.00 0.00 0.00 96 1022.4
20260506134244 54 99 0.0 0.0 0.00 0.00 0.00 96 1022.5
20260506133742 53 99 0.0 0.0 0.00 0.00 0.00 96 1022.3
20260506133238 53 99 0.0 0.0 0.00 0.00 0.00 96 1022.2
20260506132735 52 99 0.0 0.0 0.00 0.00 0.00 96 1022.3
20260506132232 52 99 0.0 0.0 0.00 0.00 0.00 96 1022.2
20260506131730 52 99 0.0 0.0 0.00 0.00 0.00 96 1022.3
20260506131226 52 99 0.0 0.0 0.00 0.00 0.00 96 1022.1
20260506130723 52 99 0.0 0.0 0.00 0.00 0.00 95 1022.2
20260506130220 52 99 0.0 0.0 0.00 0.00 0.00 95 1022.0
20260506125718 52 99 0.0 0.0 0.00 0.00 0.00 95 1021.8
20260506125215 52 99 0.0 0.0 0.00 0.00 0.00 95 1022.0
20260506124713 52 346 0.0 0.0 0.00 0.00 0.00 95 1021.7
20260506124211 52 346 0.0 0.0 0.00 0.00 0.00 95 1021.6
20260506123708 52 346 0.0 0.0 0.00 0.00 0.00 95 1021.6
20260506123207 53 90 0.0 0.0 0.00 0.00 0.00 94 1021.8
20260506122703 53 90 0.0 0.0 0.00 0.00 0.00 94 1021.6
20260506122201 53 157 0.0 0.0 0.00 0.00 0.00 94 1021.5
20260506121659 53 157 0.0 0.0 0.00 0.00 0.00 94 1021.7
20260506121155 53 157 0.0 0.0 0.00 0.00 0.00 94 1021.6
20260506120653 53 157 0.0 0.0 0.00 0.00 0.00 94 1021.6
20260506120150 53 157 0.0 0.0 0.00 0.00 0.00 94 1021.7
20260506115648 53 157 0.0 0.0 0.00 0.00 0.00 94 1021.5
20260506115146 53 157 0.0 0.0 0.00 0.00 0.00 94 1021.4
20260506114643 54 157 0.0 0.0 0.00 0.00 0.00 94 1021.7
20260506114141 54 157 0.0 0.0 0.00 0.00 0.00 93 1021.6
20260506113639 54 157 0.0 0.0 0.00 0.00 0.00 94 1021.4
20260506113136 54 157 0.0 0.0 0.00 0.00 0.00 94 1021.4
20260506112632 54 157 0.0 0.0 0.00 0.00 0.00 94 1021.4
20260506112130 55 157 0.0 0.0 0.00 0.00 0.00 94 1021.2
20260506111628 55 157 0.0 0.0 0.00 0.00 0.00 94 1021.2
20260506111125 55 180 0.0 0.0 0.00 0.00 0.00 94 1021.4
20260506110622 55 180 0.0 0.0 0.00 0.00 0.00 95 1021.3
20260506110120 55 180 0.0 0.0 0.00 0.00 0.00 95 1021.3
20260506105616 55 180 0.0 0.0 0.00 0.00 0.00 95 1021.5
20260506105113 55 180 0.0 0.0 0.00 0.00 0.00 95 1021.4
20260506104611 55 180 0.0 0.0 0.00 0.00 0.00 95 1021.3
20260506104108 55 180 0.0 0.0 0.00 0.00 0.00 95 1021.3
20260506103605 56 180 0.0 0.0 0.00 0.00 0.00 95 1021.4
20260506103102 56 180 0.0 0.0 0.00 0.00 0.00 95 1021.6
20260506102600 56 180 0.0 0.0 0.00 0.00 0.00 95 1021.5
20260506102058 56 180 0.0 0.0 0.00 0.00 0.00 95 1021.3
20260506101554 56 180 0.0 0.0 0.00 0.00 0.00 95 1021.4
20260506101051 57 180 0.0 0.0 0.00 0.00 0.00 95 1021.2
20260506100549 56 180 0.0 0.0 0.00 0.00 0.00 95 1021.3
20260506100047 56 180 0.0 0.0 0.00 0.00 0.00 95 1021.5
20260506095546 56 90 0.0 0.0 0.00 0.00 0.00 95 1021.4
20260506095042 56 90 0.0 0.0 0.00 0.00 0.00 95 1021.5
20260506094540 56 90 0.0 0.0 0.00 0.00 0.00 95 1021.3
20260506094037 56 90 0.0 0.0 0.00 0.00 0.00 95 1021.4
20260506093536 56 90 0.0 0.0 0.00 0.00 0.00 94 1021.6
20260506093033 56 90 0.0 0.0 0.00 0.00 0.00 94 1021.6
20260506092530 56 90 0.0 0.0 0.00 0.00 0.00 94 1021.5
20260506092027 56 90 0.0 0.0 0.00 0.00 0.00 94 1021.4
20260506091525 56 90 0.0 0.0 0.00 0.00 0.00 94 1021.5
20260506091022 56 90 0.0 0.0 0.00 0.00 0.00 94 1021.4
20260506090520 56 90 0.0 0.0 0.00 0.00 0.00 93 1021.5
20260506090016 56 90 0.0 0.0 0.00 0.00 0.00 93 1021.6
20260506085513 57 90 0.0 0.0 0.00 0.00 0.00 93 1021.7
20260506085009 56 90 0.0 0.0 0.00 0.00 0.00 92 1021.6
20260506084506 56 90 0.0 0.0 0.00 0.00 0.00 92 1021.6
20260506084002 57 90 0.0 0.0 0.00 0.00 0.00 92 1021.8
20260506083500 57 90 0.0 0.0 0.00 0.00 0.00 92 1021.7
20260506082957 57 90 0.0 0.0 0.00 0.00 0.00 91 1021.7
20260506082454 57 90 0.0 0.0 0.00 0.00 0.00 91 1021.7
20260506081949 58 90 0.0 0.0 0.00 0.00 0.00 91 1021.9
20260506081448 58 90 0.0 0.0 0.00 0.00 0.00 91 1021.9
20260506080945 57 90 0.0 0.0 0.00 0.00 0.00 91 1021.8
20260506080442 57 90 0.0 0.0 0.00 0.00 0.00 90 1021.8
20260506073426 58 114 0.0 1.0 0.00 0.00 0.00 89 1021.8
20260506072923 58 111 0.0 0.0 0.00 0.00 0.00 89 1021.8
20260506072420 58 120 0.0 1.0 0.00 0.00 0.00 89 1021.7
20260506071918 59 83 0.0 2.0 0.00 0.00 0.00 89 1021.7
20260506071416 59 111 1.0 2.0 0.00 0.00 0.00 88 1021.8
20260506070912 58 90 0.0 0.0 0.00 0.00 0.00 88 1021.9
20260506070409 58 112 0.0 0.0 0.00 0.00 0.00 88 1021.5
20260506062347 58 105 0.0 0.0 0.00 0.06 0.06 85 1021.3
20260506061842 58 105 0.0 1.0 0.00 0.06 0.06 86 1021.4
20260506061339 58 270 0.0 0.0 0.00 0.06 0.06 85 1021.4
20260506060837 58 270 0.0 0.0 0.00 0.06 0.06 84 1021.4
20260506060335 58 270 0.0 0.0 0.00 0.06 0.06 84 1021.1
20260506051307 60 270 0.0 0.0 0.00 0.06 0.06 77 1020.9
20260506050805 60 270 0.0 0.0 0.00 0.06 0.06 76 1020.9
20260506050302 60 270 0.0 0.0 0.00 0.06 0.06 76 1020.8
20260506044752 61 282 0.0 0.0 0.00 0.06 0.06 74 1020.6
20260506044250 61 282 0.0 0.0 0.00 0.06 0.06 74 1020.4
20260506043747 61 282 0.0 2.0 0.00 0.06 0.06 73 1020.3
20260506043244 61 270 0.0 0.0 0.00 0.06 0.06 73 1020.3
20260506042743 62 270 0.0 1.0 0.00 0.06 0.06 72 1020.1
20260506042242 62 246 0.0 0.0 0.00 0.06 0.06 72 1020.1
20260506041739 62 246 0.0 2.0 0.00 0.06 0.06 71 1020.3
20260506041236 62 254 2.0 2.0 0.00 0.06 0.06 70 1020.2
20260506040734 62 261 0.0 0.0 0.00 0.06 0.06 69 1020.0
20260506040231 62 254 1.0 2.0 0.00 0.06 0.06 69 1020.0
20260506035727 63 270 0.0 0.0 0.00 0.06 0.06 68 1019.9
20260506035224 63 264 0.0 2.0 0.00 0.06 0.06 68 1019.9
20260506034721 63 228 0.0 2.0 0.00 0.06 0.06 67 1019.9
20260506034218 63 257 1.0 2.0 0.00 0.06 0.06 67 1019.7
20260506033716 63 249 0.0 1.0 0.00 0.06 0.06 66 1019.5
20260506033212 63 229 0.0 3.0 0.00 0.06 0.06 65 1019.6
20260506032709 64 337 0.0 3.0 0.00 0.06 0.06 64 1019.6
20260506032206 64 255 0.0 2.0 0.00 0.06 0.06 63 1019.5
20260506031703 64 319 0.0 4.0 0.00 0.06 0.06 63 1019.4
20260506031200 64 270 0.0 3.0 0.00 0.06 0.06 62 1019.5
20260506030659 64 241 2.0 2.0 0.00 0.06 0.06 61 1019.4
20260506030155 64 270 0.0 2.0 0.00 0.06 0.06 60 1019.1
20260506025652 64 270 0.0 2.0 0.00 0.06 0.06 60 1019.2
20260506025148 64 249 3.0 4.0 0.00 0.06 0.06 59 1019.2
20260506024646 64 240 0.0 3.0 0.00 0.06 0.06 59 1018.9
20260506024142 64 243 0.0 4.0 0.00 0.06 0.06 59 1018.9
20260506023638 65 270 0.0 3.0 0.00 0.06 0.06 58 1018.7
20260506023136 65 249 1.0 3.0 0.00 0.06 0.06 58 1018.6
20260506022633 65 245 0.0 3.0 0.00 0.06 0.06 57 1018.5
20260506022130 65 225 3.0 5.0 0.00 0.06 0.06 57 1018.6
20260506021628 66 240 1.0 3.0 0.00 0.06 0.06 56 1018.8
20260506021125 66 334 2.0 5.0 0.00 0.06 0.06 56 1018.6
20260506020622 66 337 2.0 3.0 0.00 0.06 0.06 55 1018.4
20260506020120 66 323 2.0 3.0 0.00 0.06 0.06 56 1018.5
20260506015617 65 233 2.0 4.0 0.00 0.06 0.06 57 1018.4
20260506015114 66 279 0.0 3.0 0.00 0.06 0.06 57 1018.3
20260506014612 66 266 3.0 3.0 0.00 0.06 0.06 57 1018.3
20260506014106 66 244 3.0 5.0 0.00 0.06 0.06 58 1018.3
20260506013605 66 301 2.0 3.0 0.00 0.06 0.06 58 1018.2
20260506013102 66 279 3.0 8.0 0.00 0.06 0.06 58 1018.2
20260506012558 66 282 0.0 3.0 0.00 0.06 0.06 59 1018.1
20260506012055 66 306 1.0 3.0 0.00 0.06 0.06 56 1018.1
20260506011553 67 235 3.0 3.0 0.00 0.06 0.06 57 1018.1
20260506011048 67 248 3.0 5.0 0.00 0.06 0.06 57 1018.2
20260506010548 67 263 3.0 5.0 0.00 0.06 0.06 56 1018.3
20260506010044 68 270 0.0 4.0 0.00 0.06 0.06 55 1018.3
20260506005541 67 281 3.0 5.0 0.00 0.06 0.06 56 1018.2
20260506005037 67 270 1.0 4.0 0.00 0.06 0.06 56 1018.2
20260506004535 67 260 2.0 4.0 0.00 0.06 0.06 55 1018.1
20260506004031 65 270 0.0 8.0 0.00 0.06 0.06 58 1018.2
20260506003528 66 340 3.0 5.0 0.00 0.06 0.06 57 1018.1
20260506003024 66 0 2.0 5.0 0.00 0.06 0.06 57 1018.2
20260506002520 67 274 3.0 4.0 0.00 0.06 0.06 55 1017.9
20260506002016 67 279 0.0 8.0 0.00 0.06 0.06 55 1018.1
20260506001512 67 251 3.0 7.0 0.00 0.06 0.06 55 1018.2
20260506001010 67 244 3.0 6.0 0.00 0.06 0.06 54 1017.8
20260506000507 67 349 2.0 9.0 0.00 0.06 0.06 54 1018.0
20260506000004 68 297 3.0 8.0 0.00 0.06 0.06 53 1017.8
20260505235502 66 262 3.0 10.0 0.00 0.06 0.06 53 1018.1
20260505234958 68 250 0.0 5.0 0.00 0.06 0.06 51 1018.1
20260505234456 67 247 6.0 8.0 0.00 0.06 0.06 51 1018.1
20260505233952 69 281 3.0 8.0 0.00 0.06 0.06 50 1018.2
20260505233450 68 225 2.0 6.0 0.00 0.06 0.06 49 1018.0
20260505232947 68 241 3.0 5.0 0.00 0.06 0.06 49 1018.4
20260505232445 67 218 3.0 7.0 0.00 0.06 0.06 49 1017.9
20260505231942 68 338 3.0 7.0 0.00 0.06 0.06 50 1018.0
20260505231439 68 278 2.0 6.0 0.00 0.06 0.06 49 1018.0
20260505230938 67 274 3.0 4.0 0.00 0.06 0.06 50 1018.0
20260505230435 66 270 2.0 5.0 0.00 0.06 0.06 50 1017.9
20260505225931 68 243 2.0 10.0 0.00 0.06 0.06 50 1018.2
20260505225428 68 286 0.0 3.0 0.00 0.06 0.06 50 1018.2
20260505224924 69 263 3.0 6.0 0.00 0.06 0.06 48 1018.2
20260505224421 68 250 3.0 7.0 0.00 0.06 0.06 47 1018.2
20260505223918 69 242 4.0 4.0 0.00 0.06 0.06 46 1018.2
20260505223415 67 277 4.0 6.0 0.00 0.06 0.06 48 1018.3
20260505222912 66 290 0.0 3.0 0.00 0.06 0.06 50 1018.1
20260505222408 67 216 2.0 5.0 0.00 0.06 0.06 50 1018.3
20260505221904 67 248 3.0 5.0 0.00 0.06 0.06 51 1018.4
20260505221402 68 246 2.0 5.0 0.00 0.06 0.06 51 1018.2
20260505220858 68 203 0.0 5.0 0.00 0.06 0.06 50 1018.4
20260505220355 68 250 3.0 6.0 0.00 0.06 0.06 51 1018.4
20260505215853 68 260 3.0 6.0 0.00 0.06 0.06 51 1018.4
20260505215351 67 172 0.0 3.0 0.00 0.06 0.06 52 1018.5
20260505214849 68 225 3.0 5.0 0.00 0.06 0.06 50 1018.4
20260505214346 69 268 9.0 9.0 0.00 0.06 0.06 50 1018.3
20260505213843 70 232 2.0 3.0 0.00 0.06 0.06 49 1018.4
20260505213341 68 210 2.0 6.0 0.00 0.06 0.06 49 1018.5
20260505212837 69 188 0.0 8.0 0.00 0.06 0.06 48 1018.6
20260505212334 68 260 2.0 4.0 0.00 0.06 0.06 50 1018.7
20260505211830 68 225 3.0 6.0 0.00 0.06 0.06 50 1018.7
20260505211328 68 201 2.0 9.0 0.00 0.06 0.06 51 1018.6
20260505210824 67 232 4.0 5.0 0.00 0.06 0.06 53 1018.7
20260505210321 65 219 3.0 5.0 0.00 0.06 0.06 55 1018.8
20260505205818 68 225 2.0 5.0 0.00 0.06 0.06 54 1018.7
20260505205316 68 270 2.0 5.0 0.00 0.06 0.06 55 1018.7
20260505204812 69 231 2.0 10.0 0.00 0.06 0.06 54 1018.8
20260505204311 67 229 0.0 7.0 0.00 0.06 0.06 56 1018.7
20260505203808 67 248 2.0 5.0 0.00 0.06 0.06 56 1018.7
20260505203304 68 265 3.0 5.0 0.00 0.06 0.06 55 1018.8
20260505202800 68 207 4.0 9.0 0.00 0.06 0.06 55 1018.8
20260505202256 70 199 2.0 5.0 0.00 0.06 0.06 54 1018.6
20260505201753 68 229 0.0 5.0 0.00 0.06 0.06 54 1018.7
20260505201251 70 248 3.0 5.0 0.00 0.06 0.06 54 1018.9
20260505200749 68 225 3.0 6.0 0.00 0.06 0.06 54 1018.7
20260505200246 68 266 4.0 6.0 0.00 0.06 0.06 54 1018.6
20260505195741 67 216 2.0 6.0 0.00 0.06 0.06 55 1018.9
20260505195239 66 216 2.0 3.0 0.00 0.06 0.06 49 1019.2
20260505194736 67 216 10.0 10.0 0.00 0.06 0.06 48 1018.9
20260505194232 67 282 2.0 6.0 0.00 0.06 0.06 49 1019.0
20260505193728 67 207 3.0 6.0 0.00 0.06 0.06 49 1019.1
20260505193226 67 251 1.0 5.0 0.00 0.06 0.06 50 1019.0
20260505192724 67 266 4.0 8.0 0.00 0.06 0.06 49 1018.9
20260505192221 65 105 0.0 6.0 0.00 0.06 0.06 50 1018.9
20260505191720 66 221 4.0 4.0 0.00 0.06 0.06 49 1019.1
20260505191218 65 356 2.0 5.0 0.00 0.06 0.06 52 1019.2
20260505190714 65 252 3.0 3.0 0.00 0.06 0.06 54 1019.2
20260505190213 65 291 1.0 6.0 0.00 0.06 0.06 53 1019.2
20260505185710 65 270 1.0 4.0 0.00 0.06 0.06 52 1019.3
20260505185207 64 283 1.0 8.0 0.00 0.06 0.06 56 1019.1
20260505184703 65 229 5.0 6.0 0.00 0.06 0.06 56 1019.3
20260505184200 65 270 5.0 8.0 0.00 0.06 0.06 54 1019.2
20260505183657 65 261 4.0 6.0 0.00 0.06 0.06 55 1019.1
20260505183155 64 250 2.0 4.0 0.00 0.06 0.06 55 1019.2
20260505182650 64 254 3.0 5.0 0.00 0.06 0.06 56 1019.2
20260505182148 64 261 3.0 5.0 0.00 0.06 0.06 56 1019.3
20260505181644 65 256 3.0 5.0 0.00 0.06 0.06 58 1019.0
20260505181142 64 265 0.0 4.0 0.00 0.06 0.06 54 1018.9
20260505180638 64 258 0.0 4.0 0.00 0.06 0.06 59 1019.0
20260505180135 64 214 0.0 5.0 0.00 0.06 0.06 58 1019.0
20260505175631 64 268 5.0 9.0 0.00 0.06 0.06 60 1019.0
20260505175128 64 318 0.0 5.0 0.00 0.06 0.06 61 1019.0
20260505174624 63 334 1.0 7.0 0.00 0.06 0.06 63 1019.0
20260505174120 64 270 2.0 5.0 0.00 0.06 0.06 62 1018.8
20260505173617 65 250 0.0 7.0 0.00 0.06 0.06 63 1018.6
20260505173114 64 165 0.0 5.0 0.00 0.06 0.06 64 1018.6
20260505172612 64 270 0.0 5.0 0.00 0.06 0.06 66 1018.6
20260505172108 62 225 0.0 3.0 0.00 0.06 0.06 67 1018.9
20260505171603 63 328 0.0 5.0 0.00 0.06 0.06 64 1018.7
20260505171100 64 270 0.0 5.0 0.00 0.06 0.06 66 1018.9
20260505170557 62 234 1.0 3.0 0.00 0.06 0.06 64 1018.5
20260505170053 63 243 1.0 5.0 0.00 0.06 0.06 66 1018.6
20260505165548 62 254 2.0 4.0 0.00 0.06 0.06 69 1018.5
20260505165045 64 251 3.0 5.0 0.00 0.06 0.06 69 1018.7
20260505164540 59 255 1.0 2.0 0.00 0.06 0.06 71 1018.6
20260505164038 62 246 2.0 4.0 0.00 0.06 0.06 72 1018.6
20260505163537 64 233 2.0 5.0 0.00 0.06 0.06 71 1018.4
20260505163033 62 225 2.0 2.0 0.00 0.06 0.06 71 1018.5
20260505162526 60 280 2.0 4.0 0.00 0.06 0.06 74 1018.4
20260505162024 58 235 0.0 3.0 0.00 0.06 0.06 76 1018.3
20260505161520 62 218 3.0 5.0 0.00 0.06 0.06 75 1018.2
20260505161017 59 0 0.0 2.0 0.00 0.06 0.06 76 1018.4
20260505160516 58 246 0.0 2.0 0.00 0.06 0.06 76 1018.4
20260505152946 59 251 1.0 3.0 0.00 0.06 0.06 83 1018.3
20260505152443 60 248 2.0 6.0 0.00 0.06 0.06 84 1018.3
20260505151938 59 278 0.0 4.0 0.00 0.06 0.06 85 1018.3
20260505151433 59 200 0.0 2.0 0.00 0.06 0.06 86 1018.6
20260505150931 59 270 0.0 3.0 0.00 0.06 0.06 86 1018.3
20260505150428 59 261 2.0 5.0 0.00 0.06 0.06 87 1018.3
20260505140358 57 221 0.0 0.0 0.00 0.06 0.06 95 1018.0